Year,Month,Day,Hour,Minute,Value (Times are PST for temperature in C)
2012,04,22,00,00,8.50
2012,04,22,00,01,8.50
2012,04,22,00,02,8.50
2012,04,22,00,03,8.50
2012,04,22,00,04,8.50
2012,04,22,00,05,8.50
2012,04,22,00,06,8.50
2012,04,22,00,07,8.50
2012,04,22,00,08,8.50
2012,04,22,00,09,8.50
2012,04,22,00,10,8.50
2012,04,22,00,11,8.50
2012,04,22,00,12,8.40
2012,04,22,00,13,8.40
2012,04,22,00,14,8.40
2012,04,22,00,15,8.40
2012,04,22,00,16,8.40
2012,04,22,00,17,8.40
2012,04,22,00,18,8.40
2012,04,22,00,19,8.40
2012,04,22,00,20,8.40
2012,04,22,00,21,8.40
2012,04,22,00,22,8.40
2012,04,22,00,23,8.40
2012,04,22,00,24,8.40
2012,04,22,00,25,8.40
2012,04,22,00,26,8.40
2012,04,22,00,27,8.50
2012,04,22,00,28,8.50
2012,04,22,00,29,8.50
2012,04,22,00,30,8.50
2012,04,22,00,31,8.50
2012,04,22,00,32,8.50
2012,04,22,00,33,8.50
2012,04,22,00,34,8.50
2012,04,22,00,35,8.50
2012,04,22,00,36,8.50
2012,04,22,00,37,8.50
2012,04,22,00,38,8.50
2012,04,22,00,39,8.50
2012,04,22,00,40,8.50
2012,04,22,00,41,8.50
2012,04,22,00,42,8.50
2012,04,22,00,43,8.50
2012,04,22,00,44,8.50
2012,04,22,00,45,8.50
2012,04,22,00,46,8.50
2012,04,22,00,47,8.50
2012,04,22,00,48,8.50
2012,04,22,00,49,8.50
2012,04,22,00,50,8.50
2012,04,22,00,51,8.50
2012,04,22,00,52,8.40
2012,04,22,00,53,8.40
2012,04,22,00,54,8.40
2012,04,22,00,55,8.40
2012,04,22,00,56,8.40
2012,04,22,00,57,8.40
2012,04,22,00,58,8.40
2012,04,22,00,59,8.30
2012,04,22,01,00,8.30
2012,04,22,01,01,8.30
2012,04,22,01,02,8.30
2012,04,22,01,03,8.30
2012,04,22,01,04,8.30
2012,04,22,01,05,8.30
2012,04,22,01,06,8.30
2012,04,22,01,07,8.20
2012,04,22,01,08,8.20
2012,04,22,01,09,8.20
2012,04,22,01,10,8.20
2012,04,22,01,11,8.20
2012,04,22,01,12,8.20
2012,04,22,01,13,8.20
2012,04,22,01,14,8.20
2012,04,22,01,15,8.20
2012,04,22,01,16,8.20
2012,04,22,01,17,8.20
2012,04,22,01,18,8.20
2012,04,22,01,19,8.10
2012,04,22,01,20,8.10
2012,04,22,01,21,8.10
2012,04,22,01,22,8.10
2012,04,22,01,23,8.10
2012,04,22,01,24,8.10
2012,04,22,01,25,8.10
2012,04,22,01,26,8.10
2012,04,22,01,27,8.00
2012,04,22,01,28,8.00
2012,04,22,01,29,8.00
2012,04,22,01,30,8.00
2012,04,22,01,31,8.00
2012,04,22,01,32,8.00
2012,04,22,01,33,8.00
2012,04,22,01,34,8.00
2012,04,22,01,35,8.00
2012,04,22,01,36,8.00
2012,04,22,01,37,8.00
2012,04,22,01,38,8.00
2012,04,22,01,39,7.90
2012,04,22,01,40,7.90
2012,04,22,01,41,7.90
2012,04,22,01,42,7.90
2012,04,22,01,43,7.90
2012,04,22,01,44,7.90
2012,04,22,01,45,7.90
2012,04,22,01,46,7.90
2012,04,22,01,47,7.90
2012,04,22,01,48,7.90
2012,04,22,01,49,7.90
2012,04,22,01,50,7.90
2012,04,22,01,51,7.80
2012,04,22,01,52,7.80
2012,04,22,01,53,7.80
2012,04,22,01,54,7.80
2012,04,22,01,55,7.80
2012,04,22,01,56,7.80
2012,04,22,01,57,7.80
2012,04,22,01,58,7.90
2012,04,22,01,59,7.90
2012,04,22,02,00,7.90
2012,04,22,02,01,7.90
2012,04,22,02,02,7.90
2012,04,22,02,03,7.90
2012,04,22,02,04,7.90
2012,04,22,02,05,7.80
2012,04,22,02,06,7.80
2012,04,22,02,07,7.80
2012,04,22,02,08,7.80
2012,04,22,02,09,7.80
2012,04,22,02,10,7.80
2012,04,22,02,11,7.80
2012,04,22,02,12,7.80
2012,04,22,02,13,7.80
2012,04,22,02,14,7.80
2012,04,22,02,15,7.80
2012,04,22,02,16,7.80
2012,04,22,02,17,7.80
2012,04,22,02,18,7.80
2012,04,22,02,19,7.80
2012,04,22,02,20,7.80
2012,04,22,02,21,7.80
2012,04,22,02,22,7.80
2012,04,22,02,23,7.80
2012,04,22,02,24,7.80
2012,04,22,02,25,7.80
2012,04,22,02,26,7.80
2012,04,22,02,27,7.80
2012,04,22,02,28,7.80
2012,04,22,02,29,7.80
2012,04,22,02,30,7.80
2012,04,22,02,31,7.80
2012,04,22,02,32,7.80
2012,04,22,02,33,7.80
2012,04,22,02,34,7.80
2012,04,22,02,35,7.80
2012,04,22,02,36,7.80
2012,04,22,02,37,7.80
2012,04,22,02,38,7.80
2012,04,22,02,39,7.80
2012,04,22,02,40,7.80
2012,04,22,02,41,7.80
2012,04,22,02,42,7.80
2012,04,22,02,43,7.70
2012,04,22,02,44,7.70
2012,04,22,02,45,7.70
2012,04,22,02,46,7.70
2012,04,22,02,47,7.70
2012,04,22,02,48,7.70
2012,04,22,02,49,7.70
2012,04,22,02,50,7.70
2012,04,22,02,51,7.70
2012,04,22,02,52,7.80
2012,04,22,02,53,7.80
2012,04,22,02,54,7.80
2012,04,22,02,55,7.80
2012,04,22,02,56,7.80
2012,04,22,02,57,7.80
2012,04,22,02,58,7.80
2012,04,22,02,59,7.70
2012,04,22,03,00,7.70
2012,04,22,03,01,7.70
2012,04,22,03,02,7.70
2012,04,22,03,03,7.80
2012,04,22,03,04,7.80
2012,04,22,03,05,7.80
2012,04,22,03,06,7.80
2012,04,22,03,07,7.80
2012,04,22,03,08,7.80
2012,04,22,03,09,7.80
2012,04,22,03,10,7.80
2012,04,22,03,11,7.80
2012,04,22,03,12,7.80
2012,04,22,03,13,7.80
2012,04,22,03,14,7.80
2012,04,22,03,15,7.80
2012,04,22,03,16,7.80
2012,04,22,03,17,7.80
2012,04,22,03,18,7.70
2012,04,22,03,19,7.70
2012,04,22,03,20,7.70
2012,04,22,03,21,7.70
2012,04,22,03,22,7.70
2012,04,22,03,23,7.70
2012,04,22,03,24,7.70
2012,04,22,03,25,7.70
2012,04,22,03,26,7.70
2012,04,22,03,27,7.60
2012,04,22,03,28,7.60
2012,04,22,03,29,7.60
2012,04,22,03,30,7.60
2012,04,22,03,31,7.60
2012,04,22,03,32,7.60
2012,04,22,03,33,7.60
2012,04,22,03,34,7.60
2012,04,22,03,35,7.50
2012,04,22,03,36,7.50
2012,04,22,03,37,7.50
2012,04,22,03,38,7.50
2012,04,22,03,39,7.50
2012,04,22,03,40,7.50
2012,04,22,03,41,7.50
2012,04,22,03,42,7.50
2012,04,22,03,43,7.50
2012,04,22,03,44,7.50
2012,04,22,03,45,7.50
2012,04,22,03,46,7.50
2012,04,22,03,47,7.50
2012,04,22,03,48,7.40
2012,04,22,03,49,7.40
2012,04,22,03,50,7.40
2012,04,22,03,51,7.40
2012,04,22,03,52,7.40
2012,04,22,03,53,7.40
2012,04,22,03,54,7.40
2012,04,22,03,55,7.40
2012,04,22,03,56,7.40
2012,04,22,03,57,7.40
2012,04,22,03,58,7.30
2012,04,22,03,59,7.30
2012,04,22,04,00,7.30
2012,04,22,04,01,7.30
2012,04,22,04,02,7.30
2012,04,22,04,03,7.30
2012,04,22,04,04,7.30
2012,04,22,04,05,7.30
2012,04,22,04,06,7.30
2012,04,22,04,07,7.30
2012,04,22,04,08,7.30
2012,04,22,04,09,7.30
2012,04,22,04,10,7.30
2012,04,22,04,11,7.30
2012,04,22,04,12,7.30
2012,04,22,04,13,7.30
2012,04,22,04,14,7.30
2012,04,22,04,15,7.30
2012,04,22,04,16,7.20
2012,04,22,04,17,7.20
2012,04,22,04,18,7.20
2012,04,22,04,19,7.20
2012,04,22,04,20,7.10
2012,04,22,04,21,7.10
2012,04,22,04,22,7.10
2012,04,22,04,23,7.00
2012,04,22,04,24,7.00
2012,04,22,04,25,7.00
2012,04,22,04,26,7.00
2012,04,22,04,27,7.00
2012,04,22,04,28,7.00
2012,04,22,04,29,6.90
2012,04,22,04,30,6.90
2012,04,22,04,31,7.00
2012,04,22,04,32,7.00
2012,04,22,04,33,7.00
2012,04,22,04,34,6.90
2012,04,22,04,35,6.90
2012,04,22,04,36,6.90
2012,04,22,04,37,6.90
2012,04,22,04,38,6.90
2012,04,22,04,39,6.90
2012,04,22,04,40,6.90
2012,04,22,04,41,6.90
2012,04,22,04,42,6.90
2012,04,22,04,43,7.00
2012,04,22,04,44,7.00
2012,04,22,04,45,7.00
2012,04,22,04,46,7.00
2012,04,22,04,47,7.10
2012,04,22,04,48,7.10
2012,04,22,04,49,7.20
2012,04,22,04,50,7.20
2012,04,22,04,51,7.20
2012,04,22,04,52,7.20
2012,04,22,04,53,7.20
2012,04,22,04,54,7.20
2012,04,22,04,55,7.20
2012,04,22,04,56,7.20
2012,04,22,04,57,7.20
2012,04,22,04,58,7.20
2012,04,22,04,59,7.20
2012,04,22,05,00,7.20
2012,04,22,05,01,7.20
2012,04,22,05,02,7.20
2012,04,22,05,03,7.20
2012,04,22,05,04,7.20
2012,04,22,05,05,7.20
2012,04,22,05,06,7.20
2012,04,22,05,07,7.20
2012,04,22,05,08,7.20
2012,04,22,05,09,7.20
2012,04,22,05,10,7.20
2012,04,22,05,11,7.20
2012,04,22,05,12,7.20
2012,04,22,05,13,7.20
2012,04,22,05,14,7.20
2012,04,22,05,15,7.20
2012,04,22,05,16,7.20
2012,04,22,05,17,7.20
2012,04,22,05,18,7.20
2012,04,22,05,19,7.20
2012,04,22,05,20,7.20
2012,04,22,05,21,7.10
2012,04,22,05,22,7.10
2012,04,22,05,23,7.10
2012,04,22,05,24,7.10
2012,04,22,05,25,7.10
2012,04,22,05,26,7.10
2012,04,22,05,27,7.10
2012,04,22,05,28,7.10
2012,04,22,05,29,7.10
2012,04,22,05,30,7.10
2012,04,22,05,31,7.10
2012,04,22,05,32,7.10
2012,04,22,05,33,7.10
2012,04,22,05,34,7.10
2012,04,22,05,35,7.10
2012,04,22,05,36,7.10
2012,04,22,05,37,7.10
2012,04,22,05,38,7.20
2012,04,22,05,39,7.20
2012,04,22,05,40,7.20
2012,04,22,05,41,7.20
2012,04,22,05,42,7.20
2012,04,22,05,43,7.10
2012,04,22,05,44,7.10
2012,04,22,05,45,7.10
2012,04,22,05,46,7.10
2012,04,22,05,47,7.10
2012,04,22,05,48,7.10
2012,04,22,05,49,7.00
2012,04,22,05,50,7.00
2012,04,22,05,51,7.00
2012,04,22,05,52,7.00
2012,04,22,05,53,7.00
2012,04,22,05,54,7.00
2012,04,22,05,55,7.00
2012,04,22,05,56,7.00
2012,04,22,05,57,7.00
2012,04,22,05,58,7.00
2012,04,22,05,59,7.00
2012,04,22,06,00,7.00
2012,04,22,06,01,6.90
2012,04,22,06,02,6.90
2012,04,22,06,03,6.90
2012,04,22,06,04,6.90
2012,04,22,06,05,6.90
2012,04,22,06,06,6.90
2012,04,22,06,07,6.90
2012,04,22,06,08,6.90
2012,04,22,06,09,6.90
2012,04,22,06,10,6.90
2012,04,22,06,11,6.90
2012,04,22,06,12,6.90
2012,04,22,06,13,6.90
2012,04,22,06,14,6.90
2012,04,22,06,15,6.90
2012,04,22,06,16,6.90
2012,04,22,06,17,6.90
2012,04,22,06,18,6.90
2012,04,22,06,19,6.80
2012,04,22,06,20,6.80
2012,04,22,06,21,6.80
2012,04,22,06,22,6.80
2012,04,22,06,23,6.80
2012,04,22,06,24,6.80
2012,04,22,06,25,6.80
2012,04,22,06,26,6.80
2012,04,22,06,27,6.80
2012,04,22,06,28,6.80
2012,04,22,06,29,6.80
2012,04,22,06,30,6.80
2012,04,22,06,31,6.80
2012,04,22,06,32,6.80
2012,04,22,06,33,6.80
2012,04,22,06,34,6.80
2012,04,22,06,35,6.80
2012,04,22,06,36,6.80
2012,04,22,06,37,6.80
2012,04,22,06,38,6.80
2012,04,22,06,39,6.80
2012,04,22,06,40,6.80
2012,04,22,06,41,6.80
2012,04,22,06,42,6.80
2012,04,22,06,43,6.80
2012,04,22,06,44,6.80
2012,04,22,06,45,6.80
2012,04,22,06,46,6.80
2012,04,22,06,47,6.80
2012,04,22,06,48,6.80
2012,04,22,06,49,6.80
2012,04,22,06,50,6.80
2012,04,22,06,51,6.80
2012,04,22,06,52,6.80
2012,04,22,06,53,6.80
2012,04,22,06,54,6.80
2012,04,22,06,55,6.80
2012,04,22,06,56,6.80
2012,04,22,06,57,6.80
2012,04,22,06,58,6.80
2012,04,22,06,59,6.80
2012,04,22,07,00,6.80
2012,04,22,07,01,6.90
2012,04,22,07,02,6.90
2012,04,22,07,03,6.90
2012,04,22,07,04,6.90
2012,04,22,07,05,6.90
2012,04,22,07,06,6.90
2012,04,22,07,07,6.90
2012,04,22,07,08,6.90
2012,04,22,07,09,6.90
2012,04,22,07,10,7.00
2012,04,22,07,11,7.00
2012,04,22,07,12,7.00
2012,04,22,07,13,7.00
2012,04,22,07,14,7.00
2012,04,22,07,15,7.00
2012,04,22,07,16,7.00
2012,04,22,07,17,7.00
2012,04,22,07,18,7.00
2012,04,22,07,19,7.00
2012,04,22,07,20,7.00
2012,04,22,07,21,7.00
2012,04,22,07,22,7.10
2012,04,22,07,23,7.10
2012,04,22,07,24,7.10
2012,04,22,07,25,7.10
2012,04,22,07,26,7.10
2012,04,22,07,27,7.10
2012,04,22,07,28,7.10
2012,04,22,07,29,7.10
2012,04,22,07,30,7.10
2012,04,22,07,31,7.20
2012,04,22,07,32,7.20
2012,04,22,07,33,7.20
2012,04,22,07,34,7.20
2012,04,22,07,35,7.20
2012,04,22,07,36,7.20
2012,04,22,07,37,7.30
2012,04,22,07,38,7.30
2012,04,22,07,39,7.30
2012,04,22,07,40,7.30
2012,04,22,07,41,7.20
2012,04,22,07,42,7.20
2012,04,22,07,43,7.30
2012,04,22,07,44,7.30
2012,04,22,07,45,7.30
2012,04,22,07,46,7.30
2012,04,22,07,47,7.30
2012,04,22,07,48,7.30
2012,04,22,07,49,7.30
2012,04,22,07,50,7.30
2012,04,22,07,51,7.30
2012,04,22,07,52,7.40
2012,04,22,07,53,7.40
2012,04,22,07,54,7.40
2012,04,22,07,55,7.50
2012,04,22,07,56,7.50
2012,04,22,07,57,7.60
2012,04,22,07,58,7.60
2012,04,22,07,59,7.60
2012,04,22,08,00,7.70
2012,04,22,08,01,7.70
2012,04,22,08,02,7.70
2012,04,22,08,03,7.70
2012,04,22,08,04,7.80
2012,04,22,08,05,7.80
2012,04,22,08,06,7.80
2012,04,22,08,07,7.80
2012,04,22,08,08,7.90
2012,04,22,08,09,8.00
2012,04,22,08,10,8.00
2012,04,22,08,11,8.10
2012,04,22,08,12,8.10
2012,04,22,08,13,8.20
2012,04,22,08,14,8.30
2012,04,22,08,15,8.40
2012,04,22,08,16,8.50
2012,04,22,08,17,8.50
2012,04,22,08,18,8.60
2012,04,22,08,19,8.70
2012,04,22,08,20,8.70
2012,04,22,08,21,8.70
2012,04,22,08,22,8.80
2012,04,22,08,23,8.80
2012,04,22,08,24,8.80
2012,04,22,08,25,8.80
2012,04,22,08,26,8.90
2012,04,22,08,27,8.90
2012,04,22,08,28,9.00
2012,04,22,08,29,9.00
2012,04,22,08,30,9.10
2012,04,22,08,31,9.10
2012,04,22,08,32,9.20
2012,04,22,08,33,9.20
2012,04,22,08,34,9.20
2012,04,22,08,35,9.30
2012,04,22,08,36,9.40
2012,04,22,08,37,9.40
2012,04,22,08,38,9.50
2012,04,22,08,39,9.50
2012,04,22,08,40,9.60
2012,04,22,08,41,9.60
2012,04,22,08,42,9.60
2012,04,22,08,43,9.60
2012,04,22,08,44,9.70
2012,04,22,08,45,9.70
2012,04,22,08,46,9.80
2012,04,22,08,47,9.90
2012,04,22,08,48,10.00
2012,04,22,08,49,10.10
2012,04,22,08,50,10.20
2012,04,22,08,51,10.30
2012,04,22,08,52,10.40
2012,04,22,08,53,10.50
2012,04,22,08,54,10.60
2012,04,22,08,55,10.70
2012,04,22,08,56,10.80
2012,04,22,08,57,10.90
2012,04,22,08,58,10.90
2012,04,22,08,59,10.90
2012,04,22,09,00,11.00
2012,04,22,09,01,11.10
2012,04,22,09,02,11.10
2012,04,22,09,03,11.10
2012,04,22,09,04,11.20
2012,04,22,09,05,11.20
2012,04,22,09,06,11.30
2012,04,22,09,07,11.40
2012,04,22,09,08,11.60
2012,04,22,09,09,11.70
2012,04,22,09,10,11.80
2012,04,22,09,11,11.80
2012,04,22,09,12,11.90
2012,04,22,09,13,12.00
2012,04,22,09,14,12.00
2012,04,22,09,15,12.10
2012,04,22,09,16,12.30
2012,04,22,09,17,12.40
2012,04,22,09,18,12.50
2012,04,22,09,19,12.60
2012,04,22,09,20,12.70
2012,04,22,09,21,12.80
2012,04,22,09,22,12.90
2012,04,22,09,23,13.00
2012,04,22,09,24,13.10
2012,04,22,09,25,13.30
2012,04,22,09,26,13.30
2012,04,22,09,27,13.40
2012,04,22,09,28,13.40
2012,04,22,09,29,13.50
2012,04,22,09,30,13.50
2012,04,22,09,31,13.60
2012,04,22,09,32,13.60
2012,04,22,09,33,13.60
2012,04,22,09,34,13.60
2012,04,22,09,35,13.60
2012,04,22,09,36,13.50
2012,04,22,09,37,13.50
2012,04,22,09,38,13.40
2012,04,22,09,39,13.40
2012,04,22,09,40,13.40
2012,04,22,09,41,13.50
2012,04,22,09,42,13.60
2012,04,22,09,43,13.60
2012,04,22,09,44,13.70
2012,04,22,09,45,13.70
2012,04,22,09,46,13.70
2012,04,22,09,47,13.60
2012,04,22,09,48,13.50
2012,04,22,09,49,13.40
2012,04,22,09,50,13.40
2012,04,22,09,51,13.50
2012,04,22,09,52,13.50
2012,04,22,09,53,13.40
2012,04,22,09,54,13.40
2012,04,22,09,55,13.40
2012,04,22,09,56,13.40
2012,04,22,09,57,13.50
2012,04,22,09,58,13.50
2012,04,22,09,59,13.50
2012,04,22,10,00,13.40
2012,04,22,10,01,13.30
2012,04,22,10,02,13.30
2012,04,22,10,03,13.40
2012,04,22,10,04,13.50
2012,04,22,10,05,13.60
2012,04,22,10,06,13.60
2012,04,22,10,07,13.60
2012,04,22,10,08,13.70
2012,04,22,10,09,13.80
2012,04,22,10,10,13.80
2012,04,22,10,11,13.90
2012,04,22,10,12,13.90
2012,04,22,10,13,14.00
2012,04,22,10,14,14.10
2012,04,22,10,15,14.20
2012,04,22,10,16,14.10
2012,04,22,10,17,14.10
2012,04,22,10,18,14.20
2012,04,22,10,19,14.20
2012,04,22,10,20,14.20
2012,04,22,10,21,14.40
2012,04,22,10,22,14.50
2012,04,22,10,23,14.50
2012,04,22,10,24,14.60
2012,04,22,10,25,14.80
2012,04,22,10,26,14.90
2012,04,22,10,27,15.00
2012,04,22,10,28,15.10
2012,04,22,10,29,15.10
2012,04,22,10,30,15.20
2012,04,22,10,31,15.30
2012,04,22,10,32,15.50
2012,04,22,10,33,15.50
2012,04,22,10,34,15.60
2012,04,22,10,35,15.70
2012,04,22,10,36,15.80
2012,04,22,10,37,15.90
2012,04,22,10,38,15.90
2012,04,22,10,39,15.90
2012,04,22,10,40,15.90
2012,04,22,10,41,15.90
2012,04,22,10,42,15.90
2012,04,22,10,43,15.80
2012,04,22,10,44,15.60
2012,04,22,10,45,15.60
2012,04,22,10,46,15.50
2012,04,22,10,47,15.50
2012,04,22,10,48,15.50
2012,04,22,10,49,15.60
2012,04,22,10,50,15.60
2012,04,22,10,51,15.70
2012,04,22,10,52,15.60
2012,04,22,10,53,15.70
2012,04,22,10,54,15.80
2012,04,22,10,55,15.80
2012,04,22,10,56,15.80
2012,04,22,10,57,15.90
2012,04,22,10,58,16.00
2012,04,22,10,59,16.10
2012,04,22,11,00,16.00
2012,04,22,11,01,15.90
2012,04,22,11,02,15.80
2012,04,22,11,03,15.90
2012,04,22,11,04,15.90
2012,04,22,11,05,15.90
2012,04,22,11,06,15.90
2012,04,22,11,07,16.00
2012,04,22,11,08,16.10
2012,04,22,11,09,16.00
2012,04,22,11,10,16.10
2012,04,22,11,11,16.10
2012,04,22,11,12,16.10
2012,04,22,11,13,16.10
2012,04,22,11,14,16.20
2012,04,22,11,15,16.30
2012,04,22,11,16,16.40
2012,04,22,11,17,16.50
2012,04,22,11,18,16.60
2012,04,22,11,19,16.70
2012,04,22,11,20,16.70
2012,04,22,11,21,16.80
2012,04,22,11,22,16.90
2012,04,22,11,23,16.80
2012,04,22,11,24,16.70
2012,04,22,11,25,16.70
2012,04,22,11,26,16.70
2012,04,22,11,27,16.50
2012,04,22,11,28,16.40
2012,04,22,11,29,16.50
2012,04,22,11,30,16.60
2012,04,22,11,31,16.50
2012,04,22,11,32,16.40
2012,04,22,11,33,16.30
2012,04,22,11,34,16.20
2012,04,22,11,35,16.20
2012,04,22,11,36,16.30
2012,04,22,11,37,16.50
2012,04,22,11,38,16.60
2012,04,22,11,39,16.80
2012,04,22,11,40,16.90
2012,04,22,11,41,16.90
2012,04,22,11,42,16.90
2012,04,22,11,43,16.90
2012,04,22,11,44,16.90
2012,04,22,11,45,16.90
2012,04,22,11,46,16.80
2012,04,22,11,47,16.80
2012,04,22,11,48,16.80
2012,04,22,11,49,16.80
2012,04,22,11,50,16.80
2012,04,22,11,51,16.80
2012,04,22,11,52,16.90
2012,04,22,11,53,16.90
2012,04,22,11,54,16.80
2012,04,22,11,55,16.90
2012,04,22,11,56,16.90
2012,04,22,11,57,16.90
2012,04,22,11,58,16.90
2012,04,22,11,59,16.90
2012,04,22,12,00,16.90
2012,04,22,12,01,16.90
2012,04,22,12,02,16.90
2012,04,22,12,03,16.90
2012,04,22,12,04,16.90
2012,04,22,12,05,16.90
2012,04,22,12,06,16.90
2012,04,22,12,07,16.90
2012,04,22,12,08,16.90
2012,04,22,23,39,10.20
2012,04,22,23,40,10.20
2012,04,22,23,41,10.20
2012,04,22,23,42,10.20
2012,04,22,23,43,10.20
2012,04,22,23,44,10.20
2012,04,22,23,45,10.10
2012,04,22,23,46,10.10
2012,04,22,23,47,10.10
2012,04,22,23,48,10.10
2012,04,22,23,49,10.10
2012,04,22,23,50,10.10
2012,04,22,23,51,10.10
2012,04,22,23,52,10.10
2012,04,22,23,53,10.10
2012,04,22,23,54,10.10
2012,04,22,23,55,10.10
2012,04,22,23,56,10.10
2012,04,22,23,57,10.00
2012,04,22,23,58,9.90
2012,04,22,23,59,9.90
